Regional Weather Roundup
Issued by NWS

Home | Current Version | Previous Version | Text Only | Print | Product List | Glossary On
Versions: 1 2 3 4 5 6 7 8 9 10 11 12 13 14 15 16 17 18 19 20 21 22 23 24 25 26 27 28 29 30 31 32 33 34 35 36 37 38 39 40 41 42 43 44 45 46 47 48 49 50
000
ASUS43 KDMX 270507
RWRIA

WEATHER ROUNDUP FOR IOWA
NATIONAL WEATHER SERVICE DES MOINES IA
1200 AM CDT MON APR 27 2015

NOTE: "FAIR" INDICATES FEW OR NO CLOUDS BELOW 12,000 FEET WITH NO
SIGNIFICANT WEATHER AND/OR OBSTRUCTIONS TO VISIBILITY.

* - THESE STATIONS ARE NOT NWS STATIONS...THUS NOT UNDER NWS
QUALITY CONTROL.  THEY ALSO DO NOT REPORT WEATHER SUCH
AS PRECIPITATION OR FOG.

IAZ001>003-012>014-020>022-031>034-043>046-270600-
   NORTHWEST IOWA

CITY           SKY/WX    TMP DP  RH WIND       PRES   REMARKS
CARROLL *      CLEAR     41  36  81 CALM      30.12R
CHEROKEE *     CLEAR     41  32  70 CALM      30.14R
DENISON *      CLEAR     45  34  65 CALM      30.11R
LE MARS *      CLEAR     45  34  65 CALM      30.14R
ORANGE CITY *  CLEAR     46  28  49 E3        30.13R
SHELDON *      CLEAR     41  27  56 NE7       30.12R
SIOUX CITY     CLEAR     45  29  53 S3        30.12R
SPENCER        CLEAR     42  31  64 NE8       30.13R
STORM LAKE *   CLEAR     46  30  53 SE5       30.14R
$$

IAZ055>058-069>071-079>083-090>094-270600-
   SOUTHWEST IOWA

CITY           SKY/WX    TMP DP  RH WIND       PRES   REMARKS
ATLANTIC *     CLEAR     39  36  87 N6        30.11R WCI  35
AUDUBON *      CLEAR     37  34  87 CALM      30.13R
CLARINDA *     CLEAR     43  37  81 N8        30.10S
COUNCIL BLFS * CLEAR     50  34  53 E8        30.10S
CRESTON *      CLEAR     46  32  57 NE7       30.10S
HARLAN  *      CLEAR     41  39  93 CALM      30.15R
LAMONI         CLEAR     47  31  53 NE6       30.08S
RED OAK *      CLEAR     41  36  81 CALM      30.10S
SHENANDOAH *   CLEAR     43  37  81 NE5       30.10S
$$

IAZ047>049-059>061-072>074-084-270600-
   CENTRAL IOWA

CITY           SKY/WX    TMP DP  RH WIND       PRES   REMARKS
AMES           CLEAR     41  33  73 NW5       30.11R
ANKENY *       CLEAR     41  36  81 CALM      30.10R
CHARITON *     CLEAR     45  34  65 CALM      30.09S
DES MOINES     CLEAR     48  28  46 CALM      30.10R
GRINNELL*      CLEAR     45  30  57 CALM      30.10R
KNOXVILLE *    CLEAR     46  34  61 CALM      30.08R
MARSHALLTOWN   CLEAR     45  28  51 N7        30.09R
PELLA *        CLEAR     44  37  78 CALM      30.11R
PERRY *          N/A     48  32  53 CALM      30.11R
$$

IAZ004>006-015-016-023>025-035-036-270600-
   NORTH CENTRAL IOWA

CITY           SKY/WX    TMP DP  RH WIND       PRES   REMARKS
ALGONA *       CLEAR     46  30  53 E5        30.12S
CLARION *      CLEAR     41  30  65 NE6       30.11S
ESTHERVILLE    CLEAR     40  26  57 E6        30.13R
FORT DODGE *   CLEAR     37  28  70 E3        30.12R
MASON CITY     CLEAR     39  31  72 N6        30.12R WCI  35
FOREST CITY *  CLEAR     37  32  81 CALM      30.12R
IOWA FALLS *     N/A     46  30  53 N3        30.11R
$$

IAZ007>011-017>019-026>030-037>042-050>054-066-270600-
   NORTHEAST IOWA

CITY           SKY/WX    TMP DP  RH WIND       PRES   REMARKS
CEDAR RAPIDS   CLEAR     42  33  70 NW7       30.07R
CHARLES CITY * CLEAR     45  28  53 N7        30.10S
CLINTON *      CLEAR     39  32  75 W6        30.08S WCI  35
DECORAH *      CLEAR     46  27  46 NW6G13    30.09R
DUBUQUE        CLEAR     40  30  67 CALM      30.06R
MONTICELLO *   CLEAR     37  37 100 CALM      30.07S
OELWEIN *      CLEAR     41  32  70 N6        30.09S
WATERLOO       CLEAR     41  32  70 CALM      30.09R
$$

IAZ064-065-067-068-078-270600-
   EAST CENTRAL IOWA

CITY           SKY/WX    TMP DP  RH WIND       PRES   REMARKS
DAVENPORT      CLEAR     41  33  73 W5        30.07R
IOWA CITY      CLEAR     41  34  76 CALM      30.08S
MT. PLEASANT * CLEAR     43  37  81 CALM      30.08R
MUSCATINE *    PTCLDY    41  36  81 CALM      30.08R
QUAD CITIES    CLEAR     40  35  83 CALM      30.06R
$$

IAZ062-063-075>077-085>089-095>099-270600-
   SOUTHEAST IOWA

CITY           SKY/WX    TMP DP  RH WIND       PRES   REMARKS
BURLINGTON     CLEAR     42  37  82 CALM      30.07R
FAIRFIELD *    CLEAR     41  34  75 CALM      30.09R
FORT MADISON * CLEAR     45  36  70 CALM      30.08S
KEOKUK *       CLEAR     45  37  76 CALM      30.07S
OSKALOOSA *      N/A     45  32  61 CALM      30.09R
CENTERVILLE *  CLEAR     45  32  61 NE3       30.09F
OTTUMWA        CLEAR     43  33  68 CALM      30.08R
WASHINGTON *   CLEAR     41  41 100 CALM      30.08R
$$

ABBREVIATIONS USED IN REMARKS
   TC - TEMPERATURES IN CELSIUS
  WCI - WIND CHILL INDEX
   HX - HEAT INDEX
  VSB - VISIBILITY
$$



USA.gov is the U.S. government's official web portal to all federal, state and local government web resources and services.